CW6617 Weather Reports


time (UTC)temp
C
wind
direction
speed
KPH
gust
KPH
rain 1hr
cm
rain 24hr
cm
rain mn
cm
humidity
%
barometer
mb
20210518203705 11 190 6.4 11.3 0.00 0.23 0.23 88 1014.6
20210518203206 11 199 4.8 12.9 0.00 0.23 0.23 88 1014.7
20210518201706 11 189 1.6 9.7 0.00 0.23 0.23 88 1014.5
20210518201206 11 184 4.8 9.7 0.00 0.23 0.23 88 1014.4
20210518200706 11 186 3.2 9.7 0.00 0.23 0.23 87 1014.4
20210518200206 11 201 4.8 9.7 0.00 0.23 0.23 87 1014.3
20210518194706 11 191 3.2 12.9 0.00 0.23 0.23 86 1014.4
20210518194206 11 201 4.8 9.7 0.00 0.23 0.23 85 1014.3
20210518193706 11 190 4.8 11.3 0.00 0.23 0.23 85 1014.2
20210518193206 11 196 4.8 12.9 0.00 0.23 0.23 85 1014.2
20210518191706 11 189 8.0 11.3 0.00 0.23 0.23 85 1014.2
20210518191206 12 175 8.0 14.5 0.00 0.23 0.23 85 1014.0
20210518190705 12 200 8.0 12.9 0.00 0.23 0.23 85 1014.0
20210518190206 12 194 11.3 16.1 0.00 0.23 0.23 84 1014.1
20210518184706 12 194 8.0 16.1 0.00 0.25 0.23 82 1014.1
20210518184205 12 191 9.7 16.1 0.00 0.28 0.23 82 1014.2
20210518183705 12 199 8.0 14.5 0.00 0.30 0.23 81 1014.2
20210518183206 12 195 8.0 24.1 0.00 0.33 0.23 80 1014.1
20210518181705 13 197 9.7 20.9 0.00 0.38 0.23 77 1013.8
20210518181205 13 203 9.7 20.9 0.00 0.43 0.23 76 1013.8
20210518180706 13 187 8.0 22.5 0.00 0.43 0.23 75 1013.8
20210518180206 13 212 11.3 20.9 0.00 0.43 0.23 75 1013.7
20210518174705 14 212 3.2 9.7 0.00 0.43 0.23 72 1013.5
20210518174205 14 221 4.8 9.7 0.00 0.43 0.23 72 1013.6
20210518173706 14 249 6.4 19.3 0.00 0.43 0.23 73 1013.6
20210518173206 14 186 6.4 12.9 0.00 0.43 0.23 73 1013.6
20210518171706 15 253 4.8 11.3 0.00 0.46 0.23 70 1013.6
20210518171206 15 265 4.8 11.3 0.00 0.46 0.23 71 1013.6
20210518170705 15 215 9.7 20.9 0.00 0.48 0.23 71 1013.6
20210518170206 15 251 8.0 19.3 0.00 0.48 0.23 73 1013.6
20210518164706 13 200 11.3 20.9 0.00 0.48 0.23 73 1013.6
20210518164206 13 188 9.7 19.3 0.00 0.48 0.23 73 1013.5
20210518163705 14 224 9.7 19.3 0.00 0.48 0.23 71 1013.5
20210518163205 15 217 8.0 19.3 0.00 0.48 0.23 72 1013.5
20210518161706 15 197 8.0 19.3 0.00 0.48 0.23 72 1013.6
20210518161205 15 206 4.8 11.3 0.00 0.48 0.23 72 1013.6
20210518160706 15 207 8.0 16.1 0.00 0.48 0.23 73 1013.6
20210518160205 15 200 8.0 19.3 0.00 0.48 0.23 78 1013.6
20210518154706 13 189 6.4 14.5 0.00 0.48 0.23 78 1013.5
20210518154206 13 232 8.0 16.1 0.00 0.48 0.23 79 1013.5
20210518153706 13 248 4.8 12.9 0.00 0.48 0.23 79 1013.5
20210518153206 13 250 8.0 19.3 0.00 0.48 0.23 77 1013.5
20210518151706 14 211 8.0 20.9 0.03 0.48 0.23 83 1013.6
20210518151213 13 206 4.8 19.3 0.05 0.48 0.23 81 1013.7
20210518150706 14 232 9.7 19.3 0.05 0.48 0.23 82 1013.8
20210518150205 13 177 9.7 19.3 0.05 0.48 0.23 87 1013.7
20210518144706 12 273 1.6 11.3 0.15 0.48 0.23 90 1013.8
20210518144206 12 211 3.2 9.7 0.18 0.48 0.23 90 1013.9
20210518143706 12 195 4.8 8.0 0.18 0.48 0.23 93 1013.9
20210518143206 11 257 4.8 19.3 0.18 0.48 0.23 91 1014.0
20210518141706 11 252 6.4 19.3 0.18 0.51 0.20 87 1014.0
20210518141205 11 283 4.8 16.1 0.15 0.53 0.18 86 1014.1
20210518140705 11 255 11.3 22.5 0.15 0.61 0.15 84 1014.0
20210518140206 12 295 17.7 27.4 0.15 0.64 0.15 84 1014.0
20210518134705 14 305 9.7 14.5 0.05 0.56 0.08 79 1013.6
20210518134205 14 276 4.8 11.3 0.03 0.51 0.05 75 1013.3
20210518133705 14 203 6.4 14.5 0.03 0.51 0.05 73 1013.1
20210518133205 14 194 9.7 12.9 0.03 0.51 0.05 73 1013.2
20210518131705 15 197 4.8 11.3 0.00 0.51 0.03 72 1013.2
20210518131205 15 297 4.8 12.9 0.00 0.51 0.03 71 1013.1
20210518130707 15 194 4.8 11.3 0.00 0.51 0.03 75 1013.1
20210518130206 15 258 4.8 9.7 0.00 0.51 0.03 75 1013.1
20210518124705 13 314 1.6 8.0 0.00 0.51 0.03 85 1013.1
20210518124205 12 315 6.4 9.7 0.00 0.51 0.03 85 1013.2
20210518123706 12 264 4.8 8.0 0.00 0.51 0.03 86 1013.3
20210518123206 12 221 3.2 11.3 0.00 0.56 0.03 83 1013.4
20210518121706 12 314 4.8 12.9 0.00 0.76 0.03 84 1013.6
20210518121206 12 318 14.5 20.9 0.00 0.76 0.03 80 1013.7
20210518120705 12 309 14.5 20.9 0.00 0.76 0.03 80 1013.7
20210518120206 13 310 12.9 24.1 0.00 0.76 0.03 76 1013.7
20210518114705 15 174 9.7 14.5 0.00 0.76 0.03 73 1013.3
20210518114206 13 248 9.7 20.9 0.00 0.76 0.03 75 1013.3
20210518113706 13 234 4.8 11.3 0.00 0.76 0.03 76 1013.2
20210518113205 14 291 8.0 14.5 0.00 0.76 0.03 77 1013.1
20210518111705 14 296 8.0 12.9 0.00 0.76 0.03 77 1013.1
20210518111205 14 295 4.8 12.9 0.00 0.76 0.03 77 1013.1
20210518110706 14 326 6.4 16.1 0.00 0.76 0.03 76 1013.1
20210518110205 14 305 8.0 14.5 0.00 0.76 0.03 75 1013.1
20210518104706 15 249 6.4 11.3 0.00 0.76 0.03 75 1013.2
20210518104206 14 310 8.0 14.5 0.00 0.76 0.03 78 1013.2
20210518103705 13 261 4.8 12.9 0.00 0.76 0.03 77 1013.3
20210518103205 13 188 3.2 14.5 0.00 0.76 0.03 78 1013.3
20210518101705 13 199 4.8 16.1 0.00 0.76 0.03 79 1013.3
20210518101205 13 238 4.8 12.9 0.00 0.76 0.03 80 1013.3
20210518100706 13 185 8.0 12.9 0.00 0.76 0.03 79 1013.3
20210518100206 13 215 6.4 11.3 0.00 0.76 0.03 78 1013.3
20210518094705 12 253 6.4 14.5 0.00 0.76 0.03 79 1013.5
20210518094205 12 307 4.8 11.3 0.00 0.76 0.03 82 1013.4
20210518093705 12 180 4.8 11.3 0.00 0.76 0.03 83 1013.5
20210518093205 12 247 4.8 19.3 0.00 0.76 0.03 82 1013.5
20210518091706 13 288 4.8 12.9 0.00 0.76 0.03 86 1013.3
20210518091206 12 202 6.4 12.9 0.00 0.76 0.03 86 1013.4
20210518090705 12 205 3.2 11.3 0.00 0.76 0.03 90 1013.3
20210518090205 11 239 3.2 9.7 0.00 0.76 0.03 92 1013.4
20210518084705 10 254 4.8 11.3 0.00 0.76 0.03 93 1013.3
20210518084205 10 220 1.6 4.8 0.00 0.76 0.03 95 1013.4
20210518083706 10 251 1.6 3.2 0.00 0.76 0.03 95 1013.4
20210518083205 10 283 3.2 14.5 0.00 0.76 0.03 96 1013.3
20210518081706 10 297 4.8 19.3 0.00 0.76 0.03 97 1013.4
20210518081205 10 208 1.6 8.0 0.00 0.76 0.03 97 1013.3
20210518080706 10 171 3.2 9.7 0.00 0.76 0.03 97 1013.3
20210518080206 10 247 4.8 12.9 0.00 0.76 0.03 97 1013.2
20210518074706 10 229 3.2 8.0 0.00 0.76 0.03 97 1013.0
20210518074206 10 186 3.2 9.7 0.00 0.76 0.03 97 1013.0
20210518073706 9 209 3.2 12.9 0.00 0.76 0.03 98 1013.0
20210518073205 9 174 4.8 12.9 0.00 0.76 0.03 97 1012.9
20210518071705 8 200 0.0 4.8 0.00 0.76 0.03 97 1012.9
20210518071205 8 239 0.0 4.8 0.00 0.76 0.03 97 1013.0
20210518070705 8 239 0.0 0.0 0.00 0.76 0.03 97 1013.0
20210518070205 8 239 0.0 0.0 0.00 0.76 0.03 97 1013.0
20210518064705 8 239 0.0 0.0 0.00 0.76 0.03 97 1013.1
20210518064205 8 255 0.0 0.0 0.00 0.76 0.03 97 1013.1
20210518063705 7 257 0.0 0.0 0.00 0.76 0.03 97 1013.1
20210518063206 7 258 0.0 4.8 0.00 0.76 0.03 97 1013.1
20210518061706 7 229 0.0 1.6 0.00 0.76 0.03 97 1013.0
20210518061206 7 260 0.0 4.8 0.00 0.76 0.03 97 1013.1
20210518060706 7 240 0.0 4.8 0.00 0.76 0.03 97 1013.0
20210518060205 7 232 0.0 1.6 0.00 0.76 0.03 97 1013.0
20210518054706 7 188 0.0 0.0 0.00 0.76 0.03 97 1012.9
20210518054205 7 188 0.0 0.0 0.00 0.76 0.03 97 1012.8
20210518053705 6 188 0.0 0.0 0.00 0.76 0.03 97 1012.8
20210518053205 6 186 0.0 3.2 0.00 0.76 0.03 97 1012.7
20210518051705 6 206 0.0 0.0 0.00 0.76 0.03 97 1012.8
20210518051205 6 205 0.0 0.0 0.00 0.76 0.03 97 1012.7
20210518050705 6 206 0.0 0.0 0.00 0.76 0.03 96 1012.6
20210518050206 5 205 0.0 0.0 0.00 0.76 0.03 96 1012.6
20210518044705 5 206 0.0 0.0 0.00 0.76 0.03 96 1012.5
20210518044206 5 206 0.0 0.0 0.00 0.76 0.03 96 1012.4
20210518043706 5 206 0.0 0.0 0.00 0.76 0.03 96 1012.4
20210518043205 5 206 0.0 0.0 0.00 0.76 0.03 96 1012.5
20210518041706 4 206 0.0 0.0 0.00 0.76 0.03 95 1012.3
20210518041206 4 206 0.0 0.0 0.00 0.76 0.03 95 1012.3
20210518040706 4 206 0.0 0.0 0.00 0.76 0.03 95 1012.3
20210518040205 5 206 0.0 0.0 0.00 0.76 0.03 95 1012.1
20210518034706 5 206 0.0 0.0 0.00 0.76 0.03 95 1012.1
20210518034205 5 206 0.0 0.0 0.00 0.76 0.03 95 1012.1
20210518033706 5 206 0.0 0.0 0.03 0.76 0.03 95 1012.0
20210518033205 5 206 0.0 0.0 0.03 0.76 0.03 95 1011.9
20210518031706 5 206 0.0 0.0 0.03 0.76 0.03 95 1011.9
20210518031206 5 206 0.0 0.0 0.03 0.76 0.03 95 1012.0
20210518030705 5 206 0.0 0.0 0.03 0.76 0.03 95 1011.9
20210518030205 5 205 0.0 0.0 0.03 0.76 0.03 95 1011.9
20210518024705 6 206 0.0 0.0 0.03 0.76 0.03 95 1012.0
20210518024206 6 206 0.0 0.0 0.03 0.76 0.03 95 1012.0
20210518023705 6 206 0.0 0.0 0.00 0.74 0.00 95 1012.0
20210518023206 6 206 0.0 0.0 0.00 0.74 0.00 95 1011.9
20210518021706 6 206 0.0 0.0 0.00 0.74 0.00 95 1011.8
20210518021205 6 206 0.0 0.0 0.00 0.74 0.00 95 1011.9
20210518020705 6 206 0.0 0.0 0.00 0.74 0.00 95 1011.9
20210518020206 6 206 0.0 0.0 0.00 0.74 0.00 95 1011.9
20210518014706 6 206 0.0 0.0 0.00 0.74 0.00 95 1011.8
20210518014206 6 206 0.0 0.0 0.00 0.74 0.00 95 1011.8
20210518013705 6 206 0.0 0.0 0.00 0.74 0.00 95 1011.7
20210518013205 6 206 0.0 0.0 0.00 0.74 0.00 95 1011.7
20210518011706 6 206 0.0 0.0 0.00 0.74 0.00 95 1011.7
20210518011206 6 204 0.0 0.0 0.00 0.74 0.00 95 1011.6
20210518010705 6 197 0.0 0.0 0.00 0.74 0.00 95 1011.6
20210518010205 6 197 0.0 0.0 0.00 0.74 0.00 95 1011.5
20210518004706 6 167 0.0 0.0 0.00 0.74 0.00 95 1011.4
20210518004206 6 167 0.0 0.0 0.00 0.74 0.00 94 1011.3
20210518003705 6 167 0.0 0.0 0.00 0.74 0.00 94 1011.3
20210518003206 6 167 0.0 0.0 0.00 0.74 0.00 94 1011.2
20210518001706 7 167 0.0 0.0 0.00 0.76 0.00 95 1011.0
20210518001205 7 167 0.0 0.0 0.00 0.76 0.00 95 1011.0
20210518000705 7 167 0.0 0.0 0.00 0.79 0.00 94 1011.0
20210518000206 7 167 0.0 0.0 0.00 0.79 0.00 95 1011.0
20210517234706 7 167 0.0 0.0 0.00 0.81 0.00 95 1010.9
20210517234205 7 167 0.0 0.0 0.00 0.81 0.00 95 1010.9
20210517233706 7 167 0.0 0.0 0.00 0.81 0.00 95 1010.8
20210517233205 7 167 0.0 0.0 0.00 0.81 0.00 94 1010.9
20210517231705 7 167 0.0 0.0 0.00 0.81 0.00 94 1010.9
20210517231205 7 167 0.0 0.0 0.00 0.81 0.00 94 1010.8
20210517230706 7 167 0.0 0.0 0.00 0.81 0.00 94 1010.7
20210517230205 8 167 0.0 0.0 0.00 0.84 0.00 94 1010.8
20210517224705 8 167 0.0 0.0 0.00 0.89 0.84 95 1010.8
20210517224205 8 167 0.0 0.0 0.00 0.89 0.84 95 1010.8
20210517223705 8 167 0.0 0.0 0.00 0.89 0.84 94 1010.7
20210517223205 8 167 0.0 0.0 0.00 0.89 0.84 94 1010.7
20210517221706 8 167 0.0 0.0 0.00 0.89 0.84 94 1010.6
20210517221206 8 167 0.0 0.0 0.00 0.89 0.84 94 1010.6
20210517220706 8 167 0.0 0.0 0.00 0.89 0.84 94 1010.6
20210517220205 8 167 0.0 0.0 0.00 0.89 0.84 94 1010.5
20210517214705 8 167 0.0 0.0 0.00 0.89 0.84 94 1010.6
20210517214206 8 167 0.0 0.0 0.00 0.89 0.84 94 1010.5
20210517213705 8 167 0.0 0.0 0.00 0.89 0.84 94 1010.5
20210517213206 8 167 0.0 0.0 0.00 0.89 0.84 94 1010.4
20210517211705 9 167 0.0 0.0 0.00 0.89 0.84 94 1010.5
20210517211206 9 167 0.0 0.0 0.00 0.89 0.84 94 1010.4
20210517210705 9 167 0.0 0.0 0.00 0.89 0.84 94 1010.3
20210517210206 9 167 0.0 8.0 0.00 0.89 0.84 94 1010.2
20210517204706 9 167 0.0 0.0 0.00 0.91 0.84 94 1010.2
20210517204206 9 167 0.0 0.0 0.00 0.91 0.84 94 1010.1